Regional Weather Roundup
Issued by NWS

Home | Current Version | Previous Version | Graphics & Text | Print | Product List | Glossary On
Versions: 1 2 3 4 5 6 7 8 9 10 11 12 13 14 15 16 17 18 19 20 21 22 23 24 25 26 27 28 29 30 31 32 33 34 35 36 37 38 39 40 41 42 43 44 45 46 47 48 49 50
000
ASUS43 KLSX 271610
RWRMO

WEATHER SUMMARY FOR MISSOURI
NATIONAL WEATHER SERVICE SPRINGFIELD MO
1100 AM CDT FRI MAY 27 2016

NOTE: "FAIR" INDICATES FEW OR NO CLOUDS BELOW 12,000 FEET WITH NO
       SIGNIFICANT WEATHER AND/OR OBSTRUCTIONS TO VISIBILITY.
       CURRENT SKY AND/OR WEATHER CONDITIONS ARE NOT AVAILABLE FOR
       CHILLICOTHE AND FARMINGTON.

MOZ001>031-035>038-043-044-053-054-271700-
...NORTHERN AND WESTERN MISSOURI...

CITY           SKY/WX    TMP DP  RH WIND       PRES   REMARKS
KANSAS CTY INT CLOUDY    68  63  84 S8        29.74S
KANSAS C DTWN  CLOUDY    72  63  73 SW13      29.73S
LEE`S SUMMIT   CLOUDY    71  62  73 S13       29.75S
ST JOSEPH      CLOUDY    67  62  84 SW8       29.74R
CHILLICOTHE      N/A     78  69  73 S12G21    29.73R
KIRKSVILLE     LGT RAIN  75  68  78 S13G26    29.77R

$$
MOZ066>068-077>081-088>096-101>105-271700-
...SOUTHWEST MISSOURI...

CITY           SKY/WX    TMP DP  RH WIND       PRES   REMARKS
SPRINGFIELD    CLOUDY    73  66  78 S9        29.81R
JOPLIN         CLOUDY    73  66  78 S9        29.77F
BRANSON        PTSUNNY   72  68  88 S6        29.83F

$$
MOZ032>034-039>042-045>050-055>058-069>072-271700-
...CENTRAL MISSOURI...

CITY           SKY/WX    TMP DP  RH WIND       PRES   REMARKS
COLUMBIA       CLOUDY    74  68  81 S18       29.80F
JEFFERSON CITY CLOUDY    73  67  81 SE12      29.80F
ROLLA          CLOUDY    74  68  81 S14G24    29.82F
SEDALIA        PTSUNNY   77  68  73 S17       29.77S
WHITEMAN AFB   CLOUDY    75  69  82 S14G24    29.75R
WARRENSBURG    PTSUNNY   73  63  68 S13G20    29.74F

$$
MOZ051-052-059>065-271700-
...EAST CENTRAL MISSOURI...

CITY           SKY/WX    TMP DP  RH WIND       PRES   REMARKS
ST LOUIS INTL  CLOUDY    72  67  84 S18G25    29.87F
SPIRIT OF STL  CLOUDY    72  69  90 S8G18     29.85F
ST CHARLES     CLOUDY    71  69  93 S18       29.85F

$$
MOZ072>076-082>087-097>100-106>115-271700-
...SOUTH CENTRAL AND SOUTHEAST MISSOURI...

CITY           SKY/WX    TMP DP  RH WIND       PRES   REMARKS
CAPE GIRARDEAU CLOUDY    72  68  87 SE12      29.92F
FARMINGTON     CLOUDY    70  68  94 S10       29.90S
POPLAR BLUFF   CLOUDY    74  70  87 S12       29.89F
WEST PLAINS    CLOUDY    74  68  81 S12       29.86F

$$



USA.gov is the U.S. government's official web portal to all federal, state and local government web resources and services.